Location: Rounton
(54.4000°N, 1.3500°W)
Time: 21:55:54
(UTC+00:00)

Vanguard 1 Rocket - Pass Details

Date: 07 December 2021
Orbit: 651 x 4224 km, 34.3° (Epoch: 16 January)

Event Time Altitude Azimuth Distance (km) Brightness Sun altitude
Rises 02:34:04 0° 225° (SW) 4,465 - -46.8°
Reaches altitude 10° 02:37:02 10° 214° (SW) 3,872 - -46.4°
Maximum altitude 02:45:52 29° 159° (SSE) 3,628 - -45.3°
Exits shadow 02:46:05 29° 157° (SSE) 3,652 10.3 -45.2°
Drops below altitude 10° 03:00:17 10° 109° (ESE) 6,423 12.1 -43.4°
Sets 03:07:13 0° 101° (E) 7,936 12.8 -42.5°
